Regional Weather Roundup
Issued by NWS State College, PA

Home | Current Version | Previous Version | Text Only | Print | Product List | Glossary On
Versions: 1 2 3 4 5 6 7 8 9 10 11 12 13 14 15 16 17 18 19 20 21 22 23 24 25 26 27 28 29 30 31 32 33 34 35 36 37 38 39 40 41 42 43 44 45 46 47 48 49 50
939
ASUS41 KCTP 251310
RWRCTP

REGIONAL WEATHER ROUNDUP
NATIONAL WEATHER SERVICE STATE COLLEGE PA
900 AM EDT SAT MAR 25 2017

Note: "fair" indicates few or no clouds below 12,000 feet with no
significant weather and/or obstructions to visibility.

* = STATION THAT DOES NOT REPORT PRECIPITATION /E.G. RAIN...SNOW...ETC/
    THUNDER OR FOG.

PAZ002>004-007>009-013>016-020>023-029>032-251400-
WESTERN PENNSYLVANIA

CITY           SKY/WX    TMP DP  RH WIND       PRES   REMARKS
ERIE           CLOUDY    39  37  92 NE12      30.17R FOG
MEADVILLE      MOSUNNY   60  50  69 SW8       30.12R
FRANKLIN*      PTSUNNY   61  50  67 SW9       30.15R
NEW CASTLE     CLOUDY    62  52  69 SW5       30.15R
BEAVER COUNTY  SUNNY     61  50  67 SW9       30.15
BUTLER*        CLOUDY    63  48  59 SW8       30.16S
PITTSBURGH INT CLOUDY    63  51  65 SW9       30.16R
PITTSBURGH     MOSUNNY   63  48  58 SW10      30.16R
INDIANA*       SUNNY     61  52  72 SW8       30.18S
LATROBE        PTSUNNY   59  50  72 SW8       30.18R
WASHINGTON CO* CLOUDY    63  48  59 SW9       30.20R
$$

PAZ004>006-010>012-017>019-024>028-033>037-041-042-045-046-049>053-251400-
CENTRAL PENNSYLVANIA

CITY           SKY/WX    TMP DP  RH WIND       PRES   REMARKS
BRADFORD       PTSUNNY   59  52  77 SW8       30.12R
DUBOIS         PTSUNNY   60  50  69 W12       30.13R
CLEARFIELD       N/A    N/A N/A N/A MISG      30.14R
JOHNSTOWN      CLOUDY    60  49  66 W14       30.16S
ALTOONA        CLOUDY    65  51  60 W10       30.16S
STATE COLLEGE  MOSUNNY   63  52  67 W9G17     30.14R
WILLIAMSPORT   CLOUDY    43  37  79 CALM      30.13S
SELINSGROVE    CLOUDY    45  40  82 CALM      30.14S
FT INDIANTOWN  CLOUDY    46  45  96 CALM      30.14S
CAPITAL CITY   CLOUDY    52  42  69 CALM      30.16R
HARRISBURG     CLOUDY    47  42  83 CALM      30.15R
YORK           CLOUDY    53  49  86 CALM      30.15R
$$

PAZ038>040-043-044-047-048-054-055-060>062-067>071-251400-
EASTERN PENNSYLVANIA

CITY           SKY/WX    TMP DP  RH WIND       PRES   REMARKS
SCRANTON       CLOUDY    43  38  82 CALM      30.15R
MOUNT POCONO   CLOUDY    52  47  83 NW5       30.13R
ALLENTOWN      CLOUDY    47  38  71 CALM      30.14R
QUAKERTOWN*    CLOUDY    48  41  76 SW3       30.15R
READING        CLOUDY    51  43  74 CALM      30.15R
LANCASTER      CLOUDY    50  43  77 CALM      30.15R
COATESVILLE    CLOUDY    57  46  67 SW8       30.17R
POTTSTOWN      CLOUDY    52  40  63 CALM      30.16R
BLUE BELL      CLOUDY    52  45  76 CALM      30.14S
DOYLESTOWN     CLOUDY   N/A N/A N/A SW5       30.13S
WILLOW GROVE   NOT AVBL
NORTH PHILA    CLOUDY    57  46  66 SW6       30.16S
PHILADELPHIA   CLOUDY    56  46  69 SW13      30.17R
$$




USA.gov is the U.S. government's official web portal to all federal, state and local government web resources and services.